S-NET A (43188 NORAD) Tracking and Keplerian Element Data

This shows tracking and keplerian element data for the satellite.

Feedback or suggestion? Click here.




ElementValue
Catalog43188
NameS-NET A
Epoch Orbit26238
Epoch Day325.18365112
Epoch Year2022
RAAN227.8786
Inclination97.6464
Eccentricity0.0011061
Argument of Perigee125.5875
Mean Anonmoly234.638
Mean Motion14.98566286
Decay Rate1.495E-05
L11 43188U 18014J 22325.18365112 .00001495 00000+0 12953-3 0 9990
L22 43188 97.6464 227.8786 0011061 125.5875 234.6380 14.98566286262386



Live tracking and technical data element details for S-NET A (NORAD 43188). S-NET A can be tracked NOW for your location showing map with azimuth and elevation plus other details from your city location.







IsCatalogInMostPopularTable: catalog: 43188, numindb: 692
Update: records affected: 1



GetName: 43188 S-NET A

Hit Count: updated at: Mon, 28 Nov 2022 04:15:43 GMT